Oakland, CA

9:38 AM PDT on April 23, 2017 (GMT -0700)
Metro Oakland International

Weather History for KOAK - April, 2014

Change the Weather History Date:

Tuesday, April 22, 2014

  Actual Average Record
Temperature  
Mean Temperature 59 °F 58 °F  
Max Temperature 65 °F 67 °F 85 °F (2013)
Min Temperature 52 °F 49 °F 41 °F (1960)
Degree Days  
Heating Degree Days 6 7  
Month to date heating degree days 132 178  
Since 1 July heating degree days 2138 2531  
Cooling Degree Days 0 0  
Month to date cooling degree days 2 0  
Year to date cooling degree days 3 1  
Growing Degree Days 8 (Base 50)    
Moisture  
Dew Point 42 °F    
Average Humidity 60    
Maximum Humidity 83    
Minimum Humidity 37    
Precipitation  
Precipitation T in 0.04 in 0.38 in (2007)
Month to date precipitation 1.01 1.05  
Year to date precipitation 7.36 12.07  
Since 1 July precipitation 9.43  
Sea Level Pressure  
Sea Level Pressure 30.06 in    
Wind  
Wind Speed 19 mph (WNW)    
Max Wind Speed 31 mph    
Max Gust Speed 36 mph    
Visibility 10 miles    
Events Rain    
T = Trace of Precipitation, MM = Missing Value Source: NWS Daily Summary

Daily Weather History Graph

Daily Weather History Graph

Search for Another Location

Airport or City:

Trip Planner

Search our weather history database for the weather conditions in past years. The results will help you decide how hot, cold, wet, or windy it might be!

Date:

Astronomy

Apr. 22, 2014 Rise Set
Actual Time 6:24 AM PDT 7:51 PM PDT
Civil Twilight 5:56 AM PDT 8:18 PM PDT
Nautical Twilight 5:23 AM PDT 8:51 PM PDT
Astronomical Twilight 4:48 AM PDT 9:26 PM PDT
Moon 2:09 AM PDT (4/22) 1:05 PM PDT (4/22)
Length of Visible Light 14h 21m
Length of Day
13h 26m
Last Quarter, 45% of the Moon is Illuminated
Apr 22
Last Quarter
Apr 28
New
May 6
First Quarter
May 14
Full
May 21
Last Quarter

Hourly Weather History & Observations

Time (PDT) Temp. Dew Point Humidity Pressure Visibility Wind Dir Wind Speed Gust Speed Precip Events Conditions
12:53 AM 57.0 °F 50.0 °F 77% 29.99 in 10.0 mi WSW 10.4 mph - N/A   Overcast
1:16 AM 55.4 °F 48.2 °F 77% 29.98 in 4.0 mi West 25.3 mph 29.9 mph 0.00 in Rain Light Rain
1:27 AM 53.6 °F 48.2 °F 82% 29.98 in 10.0 mi West 19.6 mph - 0.00 in   Overcast
1:36 AM 53.6 °F 48.2 °F 82% 29.98 in 10.0 mi West 20.7 mph - 0.00 in   Overcast
1:53 AM 54.0 °F 48.0 °F 80% 29.99 in 10.0 mi WNW 21.9 mph - 0.00 in   Overcast
2:04 AM 53.6 °F 48.2 °F 82% 29.99 in 10.0 mi WNW 19.6 mph - N/A   Overcast
2:15 AM 53.6 °F 46.4 °F 77% 29.99 in 10.0 mi West 20.7 mph - N/A   Overcast
2:39 AM 53.6 °F 46.4 °F 77% 29.99 in 4.0 mi West 18.4 mph 28.8 mph N/A   Haze
2:53 AM 53.1 °F 45.0 °F 74% 29.99 in 10.0 mi West 23.0 mph - N/A   Overcast
3:53 AM 52.0 °F 43.0 °F 71% 30.00 in 10.0 mi WNW 20.7 mph 27.6 mph N/A   Partly Cloudy
4:53 AM 52.0 °F 43.0 °F 71% 30.02 in 10.0 mi WNW 18.4 mph 26.5 mph N/A   Partly Cloudy
5:14 AM 53.6 °F 42.8 °F 67% 30.03 in 10.0 mi WNW 24.2 mph - N/A   Mostly Cloudy
5:53 AM 52.0 °F 42.1 °F 69% 30.04 in 10.0 mi WNW 16.1 mph 24.2 mph N/A   Overcast
6:53 AM 52.0 °F 41.0 °F 66% 30.07 in 10.0 mi WNW 18.4 mph - N/A   Mostly Cloudy
7:53 AM 54.0 °F 41.0 °F 62% 30.08 in 10.0 mi WNW 13.8 mph - N/A   Partly Cloudy
8:53 AM 57.0 °F 39.0 °F 51% 30.09 in 10.0 mi NW 16.1 mph - N/A   Partly Cloudy
9:53 AM 59.0 °F 37.9 °F 46% 30.10 in 10.0 mi WNW 13.8 mph - N/A   Partly Cloudy
10:53 AM 62.1 °F 37.0 °F 39% 30.10 in 10.0 mi WNW 18.4 mph 25.3 mph N/A   Partly Cloudy
11:53 AM 63.0 °F 39.9 °F 43% 30.11 in 10.0 mi WNW 23.0 mph - N/A   Partly Cloudy
12:53 PM 63.0 °F 39.9 °F 43% 30.10 in 10.0 mi West 21.9 mph - N/A   Partly Cloudy
1:53 PM 64.0 °F 39.0 °F 40% 30.10 in 10.0 mi West 24.2 mph - N/A   Partly Cloudy
2:53 PM 64.0 °F 37.0 °F 37% 30.11 in 10.0 mi West 29.9 mph - N/A   Partly Cloudy
3:53 PM 62.1 °F 42.1 °F 48% 30.10 in 10.0 mi West 28.8 mph - N/A   Scattered Clouds
4:53 PM 61.0 °F 39.9 °F 46% 30.10 in 10.0 mi West 26.5 mph - N/A   Scattered Clouds
5:53 PM 60.1 °F 42.1 °F 51% 30.10 in 10.0 mi West 25.3 mph - N/A   Mostly Cloudy
6:53 PM 57.9 °F 42.1 °F 56% 30.10 in 10.0 mi WNW 23.0 mph - N/A   Mostly Cloudy
7:53 PM 55.9 °F 41.0 °F 57% 30.11 in 10.0 mi WNW 20.7 mph - N/A   Mostly Cloudy
8:53 PM 55.0 °F 39.9 °F 57% 30.12 in 10.0 mi WNW 12.7 mph - N/A   Mostly Cloudy
9:53 PM 54.0 °F 36.0 °F 51% 30.13 in 10.0 mi WNW 6.9 mph - N/A   Scattered Clouds
10:53 PM 54.0 °F 37.9 °F 55% 30.14 in 10.0 mi WNW 10.4 mph - N/A   Partly Cloudy
11:53 PM 54.0 °F 37.9 °F 55% 30.13 in 10.0 mi WNW 8.1 mph - N/A   Mostly Cloudy